When you browse on this site, cookies collect data to enhance your experience and personalize the content and advertising you see.
Visit our Privacy Policy to learn more. By continuing to use the site, you agree to this use of cookies and data.
  • In Austria
  • List of Countries
  • For 7 days
  • Water Temperature
  • Weather Map
  • News
  • Weather Widgets
  • user-avatar
    Login

    Hourly Weather Perinovo

    Today, 15 September, Sunday

    Time Temperature Precipitation Wind Pressure Humidity
    00:00 +9°C° 0 mm 2 mps 757 mmHg 88%
    01:00 +9°C° 0 mm 2 mps 757 mmHg 89%
    02:00 +8°C° 0 mm 2 mps 757 mmHg 91%
    03:00 +8°C° 0 mm 2 mps 757 mmHg 92%
    04:00 +8°C° 0 mm 2 mps 757 mmHg 92%
    05:00 +7°C° 0 mm 2 mps 756 mmHg 93%
    06:00 +9°C° 0 mm 3 mps 756 mmHg 87%
    07:00 +10°C° 0 mm 3 mps 756 mmHg 81%
    08:00 +11°C° 0 mm 3 mps 756 mmHg 75%
    09:00 +12°C° 0 mm 4 mps 755 mmHg 69%
    10:00 +14°C° 0 mm 5 mps 755 mmHg 63%
    11:00 +15°C° 0 mm 5 mps 754 mmHg 57%
    12:00 +16°C° 0 mm 6 mps 754 mmHg 55%
    13:00 +16°C° 0 mm 6 mps 753 mmHg 53%
    14:00 +17°C° 0 mm 6 mps 752 mmHg 51%
    15:00 +17°C° 0 mm 6 mps 752 mmHg 52%
    16:00 +16°C° 0 mm 5 mps 751 mmHg 53%
    17:00 +16°C° 0 mm 5 mps 750 mmHg 54%
    18:00 +15°C° 0 mm 5 mps 749 mmHg 55%
    19:00 +15°C° 0 mm 5 mps 749 mmHg 56%
    20:00 +14°C° 0 mm 5 mps 749 mmHg 57%
    21:00 +14°C° 0 mm 5 mps 748 mmHg 58%
    22:00 +14°C° 0 mm 5 mps 747 mmHg 59%
    23:00 +14°C° 0 mm 5 mps 747 mmHg 59%

    Tomorrow, 16 September, Monday

    Time Temperature Precipitation Wind Pressure Humidity
    00:00 +14°C° 0 mm 5 mps 747 mmHg 61%
    01:00 +14°C° 0 mm 5 mps 746 mmHg 63%
    02:00 +14°C° 0 mm 5 mps 746 mmHg 65%
    03:00 +14°C° 0 mm 5 mps 746 mmHg 65%
    04:00 +14°C° 0 mm 5 mps 746 mmHg 65%
    05:00 +15°C° 0 mm 5 mps 746 mmHg 65%
    06:00 +15°C° 0 mm 5 mps 746 mmHg 64%
    07:00 +15°C° 0 mm 6 mps 746 mmHg 63%
    08:00 +15°C° 0 mm 7 mps 746 mmHg 62%
    09:00 +16°C° 0 mm 7 mps 746 mmHg 59%
    10:00 +16°C° 0 mm 7 mps 746 mmHg 57%
    11:00 +17°C° 0 mm 8 mps 746 mmHg 54%
    12:00 +17°C° 0 mm 7 mps 745 mmHg 52%
    13:00 +17°C° 0 mm 7 mps 745 mmHg 49%
    14:00 +17°C° 0 mm 7 mps 745 mmHg 47%
    15:00 +17°C° 0 mm 7 mps 745 mmHg 50%
    16:00 +16°C° 0 mm 6 mps 745 mmHg 54%
    17:00 +15°C° 0 mm 5 mps 745 mmHg 57%
    18:00 +13°C° 0 mm 5 mps 745 mmHg 62%
    19:00 +12°C° 0 mm 4 mps 745 mmHg 66%
    20:00 +10°C° 0 mm 3 mps 745 mmHg 71%
    21:00 +9°C° 0 mm 3 mps 744 mmHg 74%
    22:00 +9°C° 0 mm 3 mps 744 mmHg 77%
    23:00 +8°C° 0 mm 3 mps 744 mmHg 80%

    Day after tomorrow, 17 September, Tuesday

    Time Temperature Precipitation Wind Pressure Humidity
    00:00 +8°C° 0 mm 3 mps 744 mmHg 83%
    01:00 +7°C° 0 mm 3 mps 744 mmHg 85%
    02:00 +6°C° 0 mm 4 mps 744 mmHg 87%
    03:00 +6°C° 0 mm 4 mps 743 mmHg 87%
    04:00 +6°C° 0 mm 4 mps 743 mmHg 87%
    05:00 +6°C° 0 mm 4 mps 743 mmHg 87%
    06:00 +7°C° 0 mm 4 mps 743 mmHg 81%
    07:00 +8°C° 0 mm 5 mps 743 mmHg 75%
    08:00 +9°C° 0 mm 6 mps 743 mmHg 69%
    09:00 +10°C° 0 mm 6 mps 742 mmHg 65%
    10:00 +11°C° 0 mm 6 mps 742 mmHg 61%
    11:00 +14°C° 0 mm 7 mps 742 mmHg 57%
    12:00 +14°C° 0.1 mm 7 mps 742 mmHg 56%
    13:00 +14°C° 0.1 mm 7 mps 741 mmHg 54%
    14:00 +15°C° 0.1 mm 7 mps 741 mmHg 53%
    15:00 +14°C° 0.3 mm 7 mps 741 mmHg 58%
    16:00 +13°C° 0.3 mm 6 mps 740 mmHg 63%
    17:00 +11°C° 0.3 mm 6 mps 740 mmHg 67%
    18:00 +10°C° 0.3 mm 5 mps 740 mmHg 73%
    19:00 +9°C° 0.3 mm 5 mps 740 mmHg 79%
    20:00 +8°C° 0.3 mm 5 mps 740 mmHg 84%
    21:00 +8°C° 0.1 mm 5 mps 740 mmHg 86%
    22:00 +7°C° 0.1 mm 5 mps 740 mmHg 87%
    23:00 +6°C° 0.1 mm 5 mps 739 mmHg 89%

    18 September, Wednesday

    Time Temperature Precipitation Wind Pressure Humidity
    00:00 +6°C° 0.1 mm 5 mps 739 mmHg 89%
    01:00 +6°C° 0.1 mm 5 mps 739 mmHg 89%
    02:00 +4°C° 0.1 mm 6 mps 739 mmHg 88%
    03:00 +4°C° 0 mm 6 mps 739 mmHg 88%
    04:00 +4°C° 0 mm 6 mps 740 mmHg 88%
    05:00 +4°C° 0 mm 6 mps 740 mmHg 88%
    06:00 +4°C° 0.1 mm 6 mps 740 mmHg 87%
    07:00 +5°C° 0.1 mm 6 mps 740 mmHg 87%
    08:00 +5°C° 0.1 mm 6 mps 741 mmHg 86%
    09:00 +7°C° 0.2 mm 6 mps 742 mmHg 82%
    10:00 +8°C° 0.2 mm 6 mps 742 mmHg 77%
    11:00 +9°C° 0.2 mm 6 mps 743 mmHg 73%
    12:00 +9°C° 0.2 mm 7 mps 743 mmHg 74%
    13:00 +9°C° 0.2 mm 7 mps 744 mmHg 74%
    14:00 +10°C° 0.2 mm 7 mps 744 mmHg 74%
    15:00 +10°C° 0.1 mm 7 mps 744 mmHg 74%
    16:00 +10°C° 0.1 mm 6 mps 744 mmHg 74%
    17:00 +10°C° 0.1 mm 6 mps 745 mmHg 74%
    18:00 +9°C° 0.2 mm 5 mps 745 mmHg 78%
    19:00 +8°C° 0.2 mm 5 mps 745 mmHg 82%
    20:00 +7°C° 0.2 mm 4 mps 746 mmHg 85%
    21:00 +7°C° 0 mm 4 mps 746 mmHg 88%
    22:00 +6°C° 0 mm 4 mps 746 mmHg 90%
    23:00 +5°C° 0 mm 4 mps 746 mmHg 92%

    19 September, Thursday

    Time Temperature Precipitation Wind Pressure Humidity
    00:00 +6°C° 0 mm 4 mps 747 mmHg 92%
    01:00 +7°C° 0 mm 4 mps 747 mmHg 91%
    02:00 +8°C° 0 mm 4 mps 747 mmHg 90%
    03:00 +7°C° 0 mm 4 mps 747 mmHg 91%
    04:00 +7°C° 0 mm 4 mps 747 mmHg 91%
    05:00 +7°C° 0 mm 4 mps 747 mmHg 91%
    06:00 +6°C° 0 mm 4 mps 748 mmHg 90%
    07:00 +6°C° 0 mm 4 mps 748 mmHg 88%
    08:00 +6°C° 0 mm 4 mps 748 mmHg 86%
    09:00 +8°C° 0 mm 4 mps 748 mmHg 78%
    10:00 +10°C° 0 mm 4 mps 749 mmHg 69%
    11:00 +12°C° 0 mm 4 mps 749 mmHg 61%
    12:00 +12°C° 0.3 mm 4 mps 749 mmHg 61%
    13:00 +12°C° 0.3 mm 4 mps 749 mmHg 62%
    14:00 +13°C° 0.3 mm 4 mps 748 mmHg 62%
    15:00 +12°C° 0.3 mm 4 mps 749 mmHg 65%
    16:00 +12°C° 0.3 mm 4 mps 749 mmHg 68%
    17:00 +12°C° 0.3 mm 3 mps 749 mmHg 70%
    18:00 +10°C° 0.2 mm 3 mps 749 mmHg 76%
    19:00 +9°C° 0.2 mm 3 mps 749 mmHg 82%
    20:00 +7°C° 0.2 mm 2 mps 750 mmHg 88%
    21:00 +7°C° 0 mm 3 mps 750 mmHg 90%
    22:00 +5°C° 0 mm 3 mps 750 mmHg 91%
    23:00 +4°C° 0 mm 3 mps 750 mmHg 93%

    20 September, Friday

    Time Temperature Precipitation Wind Pressure Humidity
    00:00 +4°C° 0 mm 3 mps 750 mmHg 93%
    01:00 +5°C° 0 mm 2 mps 751 mmHg 93%
    02:00 +4°C° 0 mm 2 mps 751 mmHg 93%
    03:00 +4°C° 0 mm 2 mps 751 mmHg 93%
    04:00 +3°C° 0 mm 2 mps 751 mmHg 94%
    05:00 +3°C° 0 mm 2 mps 751 mmHg 95%
    06:00 +4°C° 0 mm 2 mps 751 mmHg 92%
    07:00 +4°C° 0 mm 2 mps 751 mmHg 90%
    08:00 +5°C° 0 mm 2 mps 751 mmHg 87%
    09:00 +5°C° 0.1 mm 3 mps 752 mmHg 84%
    10:00 +8°C° 0.1 mm 3 mps 752 mmHg 80%
    11:00 +8°C° 0.1 mm 4 mps 753 mmHg 76%
    12:00 +8°C° 0.2 mm 4 mps 753 mmHg 75%
    13:00 +8°C° 0.2 mm 4 mps 753 mmHg 74%
    14:00 +8°C° 0.2 mm 4 mps 752 mmHg 74%
    15:00 +8°C° 0.1 mm 4 mps 753 mmHg 71%
    16:00 +8°C° 0.1 mm 4 mps 753 mmHg 68%
    17:00 +10°C° 0.1 mm 3 mps 753 mmHg 65%
    18:00 +8°C° 0 mm 3 mps 753 mmHg 69%
    19:00 +5°C° 0 mm 3 mps 754 mmHg 73%
    20:00 +5°C° 0 mm 2 mps 754 mmHg 77%
    21:00 +4°C° 0 mm 2 mps 754 mmHg 79%
    22:00 +4°C° 0 mm 2 mps 754 mmHg 81%
    23:00 +3°C° 0 mm 2 mps 754 mmHg 83%
    Show more